Year,Month,Day,Hour,Minute,Value (Times are PST for temperature in C)
2020,04,15,00,00,9.70
2020,04,15,00,01,9.70
2020,04,15,00,02,9.70
2020,04,15,00,03,9.70
2020,04,15,00,04,9.60
2020,04,15,00,05,9.60
2020,04,15,00,06,9.60
2020,04,15,00,07,9.50
2020,04,15,00,08,9.50
2020,04,15,00,09,9.50
2020,04,15,00,10,9.40
2020,04,15,00,11,9.40
2020,04,15,00,12,9.40
2020,04,15,00,13,9.40
2020,04,15,00,14,9.40
2020,04,15,00,15,9.30
2020,04,15,00,16,9.30
2020,04,15,00,17,9.30
2020,04,15,00,18,9.30
2020,04,15,00,19,9.20
2020,04,15,00,20,9.20
2020,04,15,00,21,9.20
2020,04,15,00,22,9.20
2020,04,15,00,23,9.20
2020,04,15,00,24,9.20
2020,04,15,00,25,9.30
2020,04,15,00,26,9.30
2020,04,15,00,27,9.30
2020,04,15,00,28,9.30
2020,04,15,00,29,9.20
2020,04,15,00,30,9.20
2020,04,15,00,31,9.20
2020,04,15,00,32,9.10
2020,04,15,00,33,9.00
2020,04,15,00,34,9.00
2020,04,15,00,35,8.90
2020,04,15,00,36,8.80
2020,04,15,00,37,8.80
2020,04,15,00,38,8.70
2020,04,15,00,39,8.70
2020,04,15,00,40,8.70
2020,04,15,00,41,8.70
2020,04,15,00,42,8.70
2020,04,15,00,43,8.70
2020,04,15,00,44,8.70
2020,04,15,00,45,8.60
2020,04,15,00,46,8.60
2020,04,15,00,47,8.60
2020,04,15,00,48,8.60
2020,04,15,00,49,8.70
2020,04,15,00,50,8.70
2020,04,15,00,51,8.70
2020,04,15,00,52,8.70
2020,04,15,00,53,8.70
2020,04,15,00,54,8.70
2020,04,15,00,55,8.70
2020,04,15,00,56,8.70
2020,04,15,00,57,8.70
2020,04,15,00,58,8.60
2020,04,15,00,59,8.60
2020,04,15,01,00,8.50
2020,04,15,01,01,8.50
2020,04,15,01,02,8.50
2020,04,15,01,03,8.40
2020,04,15,01,04,8.40
2020,04,15,01,05,8.40
2020,04,15,01,06,8.40
2020,04,15,01,07,8.40
2020,04,15,01,08,8.30
2020,04,15,01,09,8.30
2020,04,15,01,10,8.30
2020,04,15,01,11,8.30
2020,04,15,01,12,8.30
2020,04,15,01,13,8.20
2020,04,15,01,14,8.20
2020,04,15,01,15,8.20
2020,04,15,01,16,8.20
2020,04,15,01,17,8.20
2020,04,15,01,18,8.20
2020,04,15,01,19,8.20
2020,04,15,01,20,8.20
2020,04,15,01,21,8.20
2020,04,15,01,22,8.20
2020,04,15,01,23,8.20
2020,04,15,01,24,8.20
2020,04,15,01,25,8.20
2020,04,15,01,26,8.20
2020,04,15,01,27,8.20
2020,04,15,01,28,8.20
2020,04,15,01,29,8.20
2020,04,15,01,30,8.20
2020,04,15,01,31,8.20
2020,04,15,01,32,8.20
2020,04,15,01,33,8.20
2020,04,15,01,34,8.20
2020,04,15,01,35,8.20
2020,04,15,01,36,8.10
2020,04,15,01,37,8.10
2020,04,15,01,38,8.10
2020,04,15,01,39,8.10
2020,04,15,01,40,8.10
2020,04,15,01,41,8.10
2020,04,15,01,42,8.10
2020,04,15,01,43,8.10
2020,04,15,01,44,8.10
2020,04,15,01,45,8.20
2020,04,15,01,46,8.20
2020,04,15,01,47,8.20
2020,04,15,01,48,8.20
2020,04,15,01,49,8.20
2020,04,15,01,50,8.20
2020,04,15,01,51,8.20
2020,04,15,01,52,8.20
2020,04,15,01,53,8.20
2020,04,15,01,54,8.20
2020,04,15,01,55,8.20
2020,04,15,01,56,8.20
2020,04,15,01,57,8.20
2020,04,15,01,58,8.20
2020,04,15,01,59,8.20
2020,04,15,02,00,8.20
2020,04,15,02,01,8.20
2020,04,15,02,02,8.20
2020,04,15,02,03,8.20
2020,04,15,02,04,8.20
2020,04,15,02,05,8.20
2020,04,15,02,06,8.20
2020,04,15,02,07,8.20
2020,04,15,02,08,8.20
2020,04,15,02,09,8.20
2020,04,15,02,10,8.30
2020,04,15,02,11,8.30
2020,04,15,02,12,8.30
2020,04,15,02,13,8.30
2020,04,15,02,14,8.30
2020,04,15,02,15,8.30
2020,04,15,02,16,8.30
2020,04,15,02,17,8.30
2020,04,15,02,18,8.30
2020,04,15,02,19,8.20
2020,04,15,02,20,8.20
2020,04,15,02,21,8.20
2020,04,15,02,22,8.20
2020,04,15,02,23,8.20
2020,04,15,02,24,8.20
2020,04,15,02,25,8.20
2020,04,15,02,26,8.20
2020,04,15,02,27,8.20
2020,04,15,02,28,8.20
2020,04,15,02,29,8.20
2020,04,15,02,30,8.20
2020,04,15,02,31,8.20
2020,04,15,02,32,8.20
2020,04,15,02,33,8.20
2020,04,15,02,34,8.10
2020,04,15,02,35,8.10
2020,04,15,02,36,8.10
2020,04,15,02,37,8.10
2020,04,15,02,38,8.00
2020,04,15,02,39,8.00
2020,04,15,02,40,8.00
2020,04,15,02,41,7.90
2020,04,15,02,42,7.90
2020,04,15,02,43,7.90
2020,04,15,02,44,7.90
2020,04,15,02,45,7.80
2020,04,15,02,46,7.80
2020,04,15,02,47,7.80
2020,04,15,02,48,7.80
2020,04,15,02,49,7.70
2020,04,15,02,50,7.60
2020,04,15,02,51,7.60
2020,04,15,02,52,7.60
2020,04,15,02,53,7.50
2020,04,15,02,54,7.50
2020,04,15,02,55,7.40
2020,04,15,02,56,7.40
2020,04,15,02,57,7.40
2020,04,15,02,58,7.30
2020,04,15,02,59,7.30
2020,04,15,03,00,7.30
2020,04,15,03,01,7.30
2020,04,15,03,02,7.30
2020,04,15,03,03,7.30
2020,04,15,03,04,7.20
2020,04,15,03,05,7.20
2020,04,15,03,06,7.10
2020,04,15,03,07,7.10
2020,04,15,03,08,7.00
2020,04,15,03,09,7.00
2020,04,15,03,10,6.90
2020,04,15,03,11,6.90
2020,04,15,03,12,6.90
2020,04,15,03,13,6.90
2020,04,15,03,14,6.90
2020,04,15,03,15,6.90
2020,04,15,03,16,6.90
2020,04,15,03,17,6.90
2020,04,15,03,18,6.90
2020,04,15,03,19,6.90
2020,04,15,03,20,6.90
2020,04,15,03,21,6.90
2020,04,15,03,22,6.80
2020,04,15,03,23,6.80
2020,04,15,03,24,6.80
2020,04,15,03,25,6.80
2020,04,15,03,26,6.80
2020,04,15,03,27,6.80
2020,04,15,03,28,6.70
2020,04,15,03,29,6.70
2020,04,15,03,30,6.70
2020,04,15,03,31,6.70
2020,04,15,03,32,6.60
2020,04,15,03,33,6.60
2020,04,15,03,34,6.60
2020,04,15,03,35,6.60
2020,04,15,03,36,6.60
2020,04,15,03,37,6.60
2020,04,15,03,38,6.60
2020,04,15,03,39,6.60
2020,04,15,03,40,6.60
2020,04,15,03,41,6.60
2020,04,15,03,42,6.60
2020,04,15,03,43,6.60
2020,04,15,03,44,6.60
2020,04,15,03,45,6.60
2020,04,15,03,46,6.60
2020,04,15,03,47,6.50
2020,04,15,03,48,6.40
2020,04,15,03,49,6.40
2020,04,15,03,50,6.40
2020,04,15,03,51,6.50
2020,04,15,03,52,6.60
2020,04,15,03,53,6.60
2020,04,15,03,54,6.60
2020,04,15,03,55,6.60
2020,04,15,03,56,6.60
2020,04,15,03,57,6.60
2020,04,15,03,58,6.60
2020,04,15,03,59,6.60
2020,04,15,04,00,6.70
2020,04,15,04,01,6.70
2020,04,15,04,02,6.70
2020,04,15,04,03,6.60
2020,04,15,04,04,6.60
2020,04,15,04,05,6.60
2020,04,15,04,06,6.60
2020,04,15,04,07,6.60
2020,04,15,04,08,6.60
2020,04,15,04,09,6.60
2020,04,15,04,10,6.60
2020,04,15,04,11,6.50
2020,04,15,04,12,6.40
2020,04,15,04,13,6.40
2020,04,15,04,14,6.40
2020,04,15,04,15,6.40
2020,04,15,04,16,6.40
2020,04,15,04,17,6.40
2020,04,15,04,18,6.40
2020,04,15,04,19,6.40
2020,04,15,04,20,6.40
2020,04,15,04,21,6.40
2020,04,15,04,22,6.40
2020,04,15,04,23,6.40
2020,04,15,04,24,6.40
2020,04,15,04,25,6.40
2020,04,15,04,26,6.40
2020,04,15,04,27,6.40
2020,04,15,04,28,6.40
2020,04,15,04,29,6.40
2020,04,15,04,30,6.40
2020,04,15,04,31,6.40
2020,04,15,04,32,6.40
2020,04,15,04,33,6.40
2020,04,15,04,34,6.40
2020,04,15,04,35,6.40
2020,04,15,04,36,6.40
2020,04,15,04,37,6.40
2020,04,15,04,38,6.40
2020,04,15,04,39,6.30
2020,04,15,04,40,6.40
2020,04,15,04,41,6.40
2020,04,15,04,42,6.40
2020,04,15,04,43,6.40
2020,04,15,04,44,6.40
2020,04,15,04,45,6.40
2020,04,15,04,46,6.30
2020,04,15,04,47,6.30
2020,04,15,04,48,6.30
2020,04,15,04,49,6.30
2020,04,15,04,50,6.20
2020,04,15,04,51,6.20
2020,04,15,04,52,6.20
2020,04,15,04,53,6.20
2020,04,15,04,54,6.20
2020,04,15,04,55,6.20
2020,04,15,04,56,6.20
2020,04,15,04,57,6.20
2020,04,15,04,58,6.20
2020,04,15,04,59,6.20
2020,04,15,05,00,6.20
2020,04,15,05,01,6.20
2020,04,15,05,02,6.20
2020,04,15,05,03,6.20
2020,04,15,05,04,6.20
2020,04,15,05,05,6.20
2020,04,15,05,06,6.10
2020,04,15,05,07,6.10
2020,04,15,05,08,6.10
2020,04,15,05,09,6.10
2020,04,15,05,10,6.10
2020,04,15,05,11,6.10
2020,04,15,05,12,6.10
2020,04,15,05,13,6.10
2020,04,15,05,14,6.10
2020,04,15,05,15,6.00
2020,04,15,05,16,6.00
2020,04,15,05,17,5.90
2020,04,15,05,18,5.80
2020,04,15,05,19,5.80
2020,04,15,05,20,5.70
2020,04,15,05,21,5.70
2020,04,15,05,22,5.70
2020,04,15,05,23,5.60
2020,04,15,05,24,5.60
2020,04,15,05,25,5.60
2020,04,15,05,26,5.60
2020,04,15,05,27,5.50
2020,04,15,05,28,5.60
2020,04,15,05,29,5.60
2020,04,15,05,30,5.60
2020,04,15,05,31,5.60
2020,04,15,05,32,5.60
2020,04,15,05,33,5.60
2020,04,15,05,34,5.60
2020,04,15,05,35,5.60
2020,04,15,05,36,5.60
2020,04,15,05,37,5.50
2020,04,15,05,38,5.50
2020,04,15,05,39,5.50
2020,04,15,05,40,5.40
2020,04,15,05,41,5.40
2020,04,15,05,42,5.30
2020,04,15,05,43,5.30
2020,04,15,05,44,5.30
2020,04,15,05,45,5.30
2020,04,15,05,46,5.30
2020,04,15,05,47,5.30
2020,04,15,05,48,5.30
2020,04,15,05,49,5.30
2020,04,15,05,50,5.30
2020,04,15,05,51,5.30
2020,04,15,05,52,5.30
2020,04,15,05,53,5.30
2020,04,15,05,54,5.30
2020,04,15,05,55,5.30
2020,04,15,05,56,5.30
2020,04,15,05,57,5.30
2020,04,15,05,58,5.30
2020,04,15,05,59,5.30
2020,04,15,06,00,5.30
2020,04,15,06,01,5.30
2020,04,15,06,02,5.30
2020,04,15,06,03,5.40
2020,04,15,06,04,5.40
2020,04,15,06,05,5.50
2020,04,15,06,06,5.60
2020,04,15,06,07,5.70
2020,04,15,06,08,5.70
2020,04,15,06,09,5.70
2020,04,15,06,10,5.70
2020,04,15,06,11,5.70
2020,04,15,06,12,5.70
2020,04,15,06,13,5.70
2020,04,15,06,14,5.70
2020,04,15,06,15,5.70
2020,04,15,06,16,5.70
2020,04,15,06,17,5.70
2020,04,15,06,18,5.80
2020,04,15,06,19,5.80
2020,04,15,06,20,5.80
2020,04,15,06,21,5.90
2020,04,15,06,22,6.10
2020,04,15,06,23,6.20
2020,04,15,06,24,6.30
2020,04,15,06,25,6.30
2020,04,15,06,26,6.40
2020,04,15,06,27,6.60
2020,04,15,06,28,6.60
2020,04,15,06,29,6.70
2020,04,15,06,30,6.80
2020,04,15,06,31,6.80
2020,04,15,06,32,6.80
2020,04,15,06,33,6.80
2020,04,15,06,34,6.80
2020,04,15,06,35,6.80
2020,04,15,06,36,6.80
2020,04,15,06,37,6.80
2020,04,15,06,38,6.80
2020,04,15,06,39,6.80
2020,04,15,06,40,6.80
2020,04,15,06,41,6.80
2020,04,15,06,42,6.70
2020,04,15,06,43,6.70
2020,04,15,06,44,6.60
2020,04,15,06,45,6.60
2020,04,15,06,46,6.60
2020,04,15,06,47,6.60
2020,04,15,06,48,6.60
2020,04,15,06,49,6.60
2020,04,15,06,50,6.60
2020,04,15,06,51,6.60
2020,04,15,06,52,6.70
2020,04,15,06,53,6.70
2020,04,15,06,54,6.70
2020,04,15,06,55,6.70
2020,04,15,06,56,6.70
2020,04,15,06,57,6.70
2020,04,15,06,58,6.70
2020,04,15,06,59,6.70
2020,04,15,07,00,6.70
2020,04,15,07,01,6.70
2020,04,15,07,02,6.80
2020,04,15,07,03,6.80
2020,04,15,07,04,6.90
2020,04,15,07,05,6.90
2020,04,15,07,06,6.90
2020,04,15,07,07,6.80
2020,04,15,07,08,6.80
2020,04,15,07,09,6.80
2020,04,15,07,10,6.80
2020,04,15,07,11,6.80
2020,04,15,07,12,6.80
2020,04,15,07,13,6.80
2020,04,15,07,14,6.80
2020,04,15,07,15,6.90
2020,04,15,07,16,6.90
2020,04,15,07,17,7.00
2020,04,15,07,18,7.00
2020,04,15,07,19,7.10
2020,04,15,07,20,7.10
2020,04,15,07,21,7.10
2020,04,15,07,22,7.20
2020,04,15,07,23,7.30
2020,04,15,07,24,7.40
2020,04,15,07,25,7.60
2020,04,15,07,26,7.60
2020,04,15,07,27,7.80
2020,04,15,07,28,7.90
2020,04,15,07,29,7.90
2020,04,15,07,30,8.00
2020,04,15,07,31,8.10
2020,04,15,07,32,8.20
2020,04,15,07,33,8.20
2020,04,15,07,34,8.30
2020,04,15,07,35,8.40
2020,04,15,07,36,8.40
2020,04,15,07,37,8.50
2020,04,15,07,38,8.50
2020,04,15,07,39,8.50
2020,04,15,07,40,8.60
2020,04,15,07,41,8.60
2020,04,15,07,42,8.70
2020,04,15,07,43,8.70
2020,04,15,07,44,8.70
2020,04,15,07,45,8.70
2020,04,15,07,46,8.70
2020,04,15,07,47,8.70
2020,04,15,07,48,8.80
2020,04,15,07,49,8.90
2020,04,15,07,50,9.00
2020,04,15,07,51,9.00
2020,04,15,07,52,9.00
2020,04,15,07,53,9.00
2020,04,15,07,54,9.00
2020,04,15,07,55,9.00
2020,04,15,07,56,9.00
2020,04,15,07,57,8.90
2020,04,15,07,58,8.90
2020,04,15,07,59,8.80
2020,04,15,08,00,8.80
2020,04,15,08,01,8.80
2020,04,15,08,02,8.80
2020,04,15,08,03,8.80
2020,04,15,08,04,8.80
2020,04,15,08,05,8.80
2020,04,15,08,06,8.90
2020,04,15,08,07,8.90
2020,04,15,08,08,9.00
2020,04,15,08,09,9.00
2020,04,15,08,10,9.00
2020,04,15,08,11,9.10
2020,04,15,08,12,9.10
2020,04,15,08,13,9.20
2020,04,15,08,14,9.20
2020,04,15,08,15,9.20
2020,04,15,08,16,9.20
2020,04,15,08,17,9.30
2020,04,15,08,18,9.30
2020,04,15,08,19,9.30
2020,04,15,08,20,9.40
2020,04,15,08,21,9.50
2020,04,15,08,22,9.50
2020,04,15,08,23,9.60
2020,04,15,08,24,9.60
2020,04,15,08,25,9.60
2020,04,15,08,26,9.70
2020,04,15,08,27,9.70
2020,04,15,08,28,9.70
2020,04,15,08,29,9.70
2020,04,15,08,30,9.80
2020,04,15,08,31,9.90
2020,04,15,08,32,9.90
2020,04,15,08,33,9.90
2020,04,15,08,34,10.00
2020,04,15,08,35,10.10
2020,04,15,08,36,10.10
2020,04,15,08,37,10.10
2020,04,15,08,38,10.10
2020,04,15,08,39,10.10
2020,04,15,08,40,10.10
2020,04,15,08,41,10.10
2020,04,15,08,42,10.20
2020,04,15,08,43,10.20
2020,04,15,08,44,10.20
2020,04,15,08,45,10.20
2020,04,15,08,46,10.30
2020,04,15,08,47,10.30
2020,04,15,08,48,10.30
2020,04,15,08,49,10.30
2020,04,15,08,50,10.40
2020,04,15,08,51,10.40
2020,04,15,08,52,10.50
2020,04,15,08,53,10.60
2020,04,15,08,54,10.70
2020,04,15,08,55,10.80
2020,04,15,08,56,10.90
2020,04,15,08,57,11.00
2020,04,15,08,58,11.10
2020,04,15,08,59,11.20
2020,04,15,09,00,11.30
2020,04,15,09,01,11.30
2020,04,15,09,02,11.40
2020,04,15,09,03,11.40
2020,04,15,09,04,11.40
2020,04,15,09,05,11.40
2020,04,15,09,06,11.40
2020,04,15,09,07,11.50
2020,04,15,09,08,11.60
2020,04,15,09,09,11.60
2020,04,15,09,10,11.60
2020,04,15,09,11,11.60
2020,04,15,09,12,11.60
2020,04,15,09,13,11.70
2020,04,15,09,14,11.80
2020,04,15,09,15,11.80
2020,04,15,09,16,11.80
2020,04,15,09,17,11.80
2020,04,15,09,18,11.80
2020,04,15,09,19,11.80
2020,04,15,09,20,11.70
2020,04,15,09,21,11.70
2020,04,15,09,22,11.70
2020,04,15,09,23,11.70
2020,04,15,09,24,11.70
2020,04,15,09,25,11.80
2020,04,15,09,26,11.80
2020,04,15,09,27,11.90
2020,04,15,09,28,12.00
2020,04,15,09,29,12.10
2020,04,15,09,30,12.20
2020,04,15,09,31,12.30
2020,04,15,09,32,12.30
2020,04,15,09,33,12.30
2020,04,15,09,34,12.30
2020,04,15,09,35,12.40
2020,04,15,09,36,12.50
2020,04,15,09,37,12.50
2020,04,15,09,38,12.50
2020,04,15,09,39,12.50
2020,04,15,09,40,12.40
2020,04,15,09,41,12.50
2020,04,15,09,42,12.50
2020,04,15,09,43,12.60
2020,04,15,09,44,12.70
2020,04,15,09,45,12.70
2020,04,15,09,46,12.70
2020,04,15,09,47,12.80
2020,04,15,09,48,12.80
2020,04,15,09,49,12.80
2020,04,15,09,50,12.80
2020,04,15,09,51,12.80
2020,04,15,09,52,12.80
2020,04,15,09,53,12.80
2020,04,15,09,54,12.90
2020,04,15,09,55,12.90
2020,04,15,09,56,12.90
2020,04,15,09,57,12.90
2020,04,15,09,58,12.90
2020,04,15,09,59,12.90
2020,04,15,10,00,12.80
2020,04,15,10,01,12.90
2020,04,15,10,02,12.90
2020,04,15,10,03,13.00
2020,04,15,10,04,13.00
2020,04,15,10,05,13.10
2020,04,15,10,06,13.20
2020,04,15,10,07,13.10
2020,04,15,10,08,13.10
2020,04,15,10,09,13.20
2020,04,15,10,10,13.20
2020,04,15,10,11,13.30
2020,04,15,10,12,13.30
2020,04,15,10,13,13.30
2020,04,15,10,14,13.30
2020,04,15,10,15,13.30
2020,04,15,10,16,13.30
2020,04,15,10,17,13.10
2020,04,15,10,18,13.00
2020,04,15,10,19,13.00
2020,04,15,10,20,13.00
2020,04,15,10,21,13.10
2020,04,15,10,22,13.20
2020,04,15,10,23,13.20
2020,04,15,10,24,13.30
2020,04,15,10,25,13.30
2020,04,15,10,26,13.30
2020,04,15,10,27,13.30
2020,04,15,10,28,13.40
2020,04,15,10,29,13.40
2020,04,15,10,30,13.40
2020,04,15,10,31,13.50
2020,04,15,10,32,13.60
2020,04,15,10,33,13.60
2020,04,15,10,34,13.70
2020,04,15,10,35,13.80
2020,04,15,10,36,13.90
2020,04,15,10,37,13.90
2020,04,15,10,38,13.90
2020,04,15,10,39,13.80
2020,04,15,10,40,13.70
2020,04,15,10,41,13.60
2020,04,15,10,42,13.50
2020,04,15,10,43,13.40
2020,04,15,10,44,13.50
2020,04,15,10,45,13.60
2020,04,15,10,46,13.60
2020,04,15,10,47,13.70
2020,04,15,10,48,13.70
2020,04,15,10,49,13.70
2020,04,15,10,50,13.60
2020,04,15,10,51,13.60
2020,04,15,10,52,13.70
2020,04,15,10,53,13.70
2020,04,15,10,54,13.80
2020,04,15,10,55,13.90
2020,04,15,10,56,13.90
2020,04,15,10,57,14.00
2020,04,15,10,58,14.10
2020,04,15,10,59,14.20
2020,04,15,11,00,14.20
2020,04,15,11,01,14.30
2020,04,15,11,02,14.40
2020,04,15,11,03,14.50
2020,04,15,11,04,14.50
2020,04,15,11,05,14.50
2020,04,15,11,06,14.50
2020,04,15,11,07,14.50
2020,04,15,11,08,14.50
2020,04,15,11,09,14.50
2020,04,15,11,10,14.50
2020,04,15,11,11,14.30
2020,04,15,11,12,14.20
2020,04,15,11,13,14.30
2020,04,15,11,14,14.30
2020,04,15,11,15,14.20
2020,04,15,11,16,14.20
2020,04,15,11,17,14.20
2020,04,15,11,18,14.30
2020,04,15,11,19,14.40
2020,04,15,11,20,14.40
2020,04,15,11,21,14.40
2020,04,15,11,22,14.20
2020,04,15,11,23,14.20
2020,04,15,11,24,14.30
2020,04,15,11,25,14.40
2020,04,15,11,26,14.40
2020,04,15,11,27,14.30
2020,04,15,11,28,14.20
2020,04,15,11,29,14.10
2020,04,15,11,30,14.20
2020,04,15,11,31,14.20
2020,04,15,11,32,14.20
2020,04,15,11,33,14.20
2020,04,15,11,34,14.20
2020,04,15,11,35,14.20
2020,04,15,11,36,14.30
2020,04,15,11,37,14.40
2020,04,15,11,38,14.40
2020,04,15,11,39,14.50
2020,04,15,11,40,14.50
2020,04,15,11,41,14.60
2020,04,15,11,42,14.70
2020,04,15,11,43,14.60
2020,04,15,11,44,14.60
2020,04,15,11,45,14.60
2020,04,15,11,46,14.70
2020,04,15,11,47,14.80
2020,04,15,11,48,14.90
2020,04,15,11,49,15.10
2020,04,15,11,50,15.20
2020,04,15,11,51,15.30
2020,04,15,11,52,15.50
2020,04,15,11,53,15.50
2020,04,15,11,54,15.60
2020,04,15,11,55,15.80
2020,04,15,11,56,15.80
2020,04,15,11,57,15.70
2020,04,15,11,58,15.70
2020,04,15,11,59,15.70
2020,04,15,12,00,15.80
2020,04,15,12,01,15.80
2020,04,15,12,02,15.80
2020,04,15,12,03,15.80
2020,04,15,12,04,15.70
2020,04,15,12,05,15.60
2020,04,15,12,06,15.50
2020,04,15,12,07,15.40
2020,04,15,12,08,15.30
2020,04,15,12,09,15.30
2020,04,15,12,10,15.30
2020,04,15,12,11,15.30
2020,04,15,12,12,15.40
2020,04,15,12,13,15.50
2020,04,15,12,14,15.50
2020,04,15,12,15,15.60
2020,04,15,12,16,15.70
2020,04,15,12,17,15.60
2020,04,15,12,18,15.70
2020,04,15,12,19,15.80
2020,04,15,12,20,15.90
2020,04,15,12,21,16.10
2020,04,15,12,22,16.30
2020,04,15,12,23,16.30
2020,04,15,12,24,16.30
2020,04,15,12,25,16.40
2020,04,15,12,26,16.40
2020,04,15,12,27,16.30
2020,04,15,12,28,16.30
2020,04,15,12,29,16.20
2020,04,15,12,30,16.10
2020,04,15,12,31,16.10
2020,04,15,12,32,16.20
2020,04,15,12,33,16.30
2020,04,15,12,34,16.40
2020,04,15,12,35,16.50
2020,04,15,12,36,16.50
2020,04,15,12,37,16.40
2020,04,15,12,38,16.30
2020,04,15,12,39,16.20
2020,04,15,12,40,16.10
2020,04,15,12,41,16.10
2020,04,15,12,42,16.10
2020,04,15,12,43,16.10
2020,04,15,12,44,16.20
2020,04,15,12,45,16.20
2020,04,15,12,46,16.20
2020,04,15,12,47,16.20
2020,04,15,12,48,16.10
2020,04,15,12,49,15.90
2020,04,15,12,50,16.00
2020,04,15,12,51,16.10
2020,04,15,12,52,16.00
2020,04,15,12,53,15.80
2020,04,15,12,54,15.80
2020,04,15,12,55,15.80
2020,04,15,12,56,15.80
2020,04,15,12,57,15.90
2020,04,15,12,58,16.10
2020,04,15,12,59,16.10
2020,04,15,13,00,16.10
2020,04,15,13,01,16.30
2020,04,15,13,02,16.50
2020,04,15,13,03,16.60
2020,04,15,13,04,16.70
2020,04,15,13,05,16.70
2020,04,15,13,06,16.70
2020,04,15,13,07,16.70
2020,04,15,13,08,16.60
2020,04,15,13,09,16.60
2020,04,15,13,10,16.70
2020,04,15,13,11,16.70
2020,04,15,13,12,16.80
2020,04,15,13,13,16.90
2020,04,15,13,14,17.00
2020,04,15,13,15,17.00
2020,04,15,13,16,17.10
2020,04,15,13,17,17.20
2020,04,15,13,18,17.40
2020,04,15,13,19,17.50
2020,04,15,13,20,17.60
2020,04,15,13,21,17.50
2020,04,15,13,22,17.40
2020,04,15,13,23,17.30
2020,04,15,13,24,17.20
2020,04,15,13,25,17.10
2020,04,15,13,26,17.00
2020,04,15,13,27,16.90
2020,04,15,13,28,16.90
2020,04,15,13,29,16.80
2020,04,15,13,30,16.80
2020,04,15,13,31,16.80
2020,04,15,13,32,16.80
2020,04,15,13,33,16.80
2020,04,15,13,34,16.90
2020,04,15,13,35,17.00
2020,04,15,13,36,17.10
2020,04,15,13,37,17.00
2020,04,15,13,38,17.00
2020,04,15,13,39,17.10
2020,04,15,13,40,17.10
2020,04,15,13,41,17.10
2020,04,15,13,42,17.10
2020,04,15,13,43,17.00
2020,04,15,13,44,17.00
2020,04,15,13,45,17.00
2020,04,15,13,46,17.20
2020,04,15,13,47,17.20
2020,04,15,13,48,17.10
2020,04,15,13,49,17.10
2020,04,15,13,50,17.10
2020,04,15,13,51,17.10
2020,04,15,13,52,17.10
2020,04,15,13,53,17.10
2020,04,15,13,54,17.10
2020,04,15,13,55,17.20
2020,04,15,13,56,17.00
2020,04,15,13,57,17.00
2020,04,15,13,58,17.10
2020,04,15,13,59,17.20
2020,04,15,14,00,17.30
2020,04,15,14,01,17.30
2020,04,15,14,02,17.40
2020,04,15,14,03,17.40
2020,04,15,14,04,17.40
2020,04,15,14,05,17.30
2020,04,15,14,06,17.40
2020,04,15,14,07,17.50
2020,04,15,14,08,17.50
2020,04,15,14,09,17.70
2020,04,15,14,10,17.70
2020,04,15,14,11,17.80
2020,04,15,14,12,17.80
2020,04,15,14,13,17.80
2020,04,15,14,14,17.90
2020,04,15,14,15,17.90
2020,04,15,14,16,18.00
2020,04,15,14,17,18.10
2020,04,15,14,18,18.00
2020,04,15,14,19,17.90
2020,04,15,14,20,17.90
2020,04,15,14,21,17.90
2020,04,15,14,22,17.90
2020,04,15,14,23,17.90
2020,04,15,14,24,17.90
2020,04,15,14,25,17.90
2020,04,15,14,26,17.90
2020,04,15,14,27,17.90
2020,04,15,14,28,17.90
2020,04,15,14,29,18.00
2020,04,15,14,30,18.10
2020,04,15,14,31,18.20
2020,04,15,14,32,18.30
2020,04,15,14,33,18.40
2020,04,15,14,34,18.50
2020,04,15,14,35,18.60
2020,04,15,14,36,18.70
2020,04,15,14,37,18.60
2020,04,15,14,38,18.60
2020,04,15,14,39,18.70
2020,04,15,14,40,18.60
2020,04,15,14,41,18.50
2020,04,15,14,42,18.40
2020,04,15,14,43,18.30
2020,04,15,14,44,18.40
2020,04,15,14,45,18.50
2020,04,15,14,46,18.40
2020,04,15,14,47,18.50
2020,04,15,14,48,18.40
2020,04,15,14,49,18.40
2020,04,15,14,50,18.50
2020,04,15,14,51,18.60
2020,04,15,14,52,18.70
2020,04,15,14,53,18.80
2020,04,15,14,54,18.90
2020,04,15,14,55,18.90
2020,04,15,14,56,19.00
2020,04,15,14,57,19.10
2020,04,15,14,58,19.10
2020,04,15,14,59,19.00
2020,04,15,15,00,18.90
2020,04,15,15,01,18.90
2020,04,15,15,02,19.00
2020,04,15,15,03,19.10
2020,04,15,15,04,19.20
2020,04,15,15,05,19.30
2020,04,15,15,06,19.30
2020,04,15,15,07,19.30
2020,04,15,15,08,19.40
2020,04,15,15,09,19.40
2020,04,15,15,10,19.40
2020,04,15,15,11,19.40
2020,04,15,15,12,19.40
2020,04,15,15,13,19.40
2020,04,15,15,14,19.50
2020,04,15,15,15,19.50
2020,04,15,15,16,19.50
2020,04,15,15,17,19.60
2020,04,15,15,18,19.50
2020,04,15,15,19,19.50
2020,04,15,15,20,19.40
2020,04,15,15,21,19.40
2020,04,15,15,22,19.20
2020,04,15,15,23,19.10
2020,04,15,15,24,19.10
2020,04,15,15,25,19.20
2020,04,15,15,26,19.20
2020,04,15,15,27,19.10
2020,04,15,15,28,19.10
2020,04,15,15,29,19.00
2020,04,15,15,30,19.10
2020,04,15,15,31,19.00
2020,04,15,15,32,18.90
2020,04,15,15,33,18.90
2020,04,15,15,34,18.90
2020,04,15,15,35,18.80
2020,04,15,15,36,18.80
2020,04,15,15,37,18.70
2020,04,15,15,38,18.60
2020,04,15,15,39,18.50
2020,04,15,15,40,18.50
2020,04,15,15,41,18.60
2020,04,15,15,42,18.70
2020,04,15,15,43,18.70
2020,04,15,15,44,18.80
2020,04,15,15,45,18.80
2020,04,15,15,46,18.80
2020,04,15,15,47,18.80
2020,04,15,15,48,18.90
2020,04,15,15,49,18.90
2020,04,15,15,50,18.90
2020,04,15,15,51,18.90
2020,04,15,15,52,18.90
2020,04,15,15,53,19.00
2020,04,15,15,54,19.10
2020,04,15,15,55,19.10
2020,04,15,15,56,19.10
2020,04,15,15,57,19.00
2020,04,15,15,58,18.90
2020,04,15,15,59,18.90
2020,04,15,16,00,18.90
2020,04,15,16,01,18.90
2020,04,15,16,02,19.10
2020,04,15,16,03,19.10
2020,04,15,16,04,19.10
2020,04,15,16,05,19.10
2020,04,15,16,06,19.10
2020,04,15,16,07,19.10
2020,04,15,16,08,19.10
2020,04,15,16,09,19.00
2020,04,15,16,10,18.90
2020,04,15,16,11,18.90
2020,04,15,16,12,18.90
2020,04,15,16,13,18.90
2020,04,15,16,14,18.90
2020,04,15,16,15,18.90
2020,04,15,16,16,18.90
2020,04,15,16,17,18.90
2020,04,15,16,18,18.90
2020,04,15,16,19,18.90
2020,04,15,16,20,18.90
2020,04,15,16,21,19.10
2020,04,15,16,22,19.10
2020,04,15,16,23,19.20
2020,04,15,16,24,19.30
2020,04,15,16,25,19.30
2020,04,15,16,26,19.30
2020,04,15,16,27,19.20
2020,04,15,16,28,19.20
2020,04,15,16,29,19.20
2020,04,15,16,30,19.20
2020,04,15,16,31,19.10
2020,04,15,16,32,19.10
2020,04,15,16,33,19.00
2020,04,15,16,34,18.80
2020,04,15,16,35,18.80
2020,04,15,16,36,18.80
2020,04,15,16,37,18.80
2020,04,15,16,38,18.80
2020,04,15,16,39,18.80
2020,04,15,16,40,18.70
2020,04,15,16,41,18.70
2020,04,15,16,42,18.70
2020,04,15,16,43,18.70
2020,04,15,16,44,18.90
2020,04,15,16,45,18.90
2020,04,15,16,46,19.00
2020,04,15,16,47,19.10
2020,04,15,16,48,19.10
2020,04,15,16,49,19.20
2020,04,15,16,50,19.30
2020,04,15,16,51,19.20
2020,04,15,16,52,19.20
2020,04,15,16,53,19.20
2020,04,15,16,54,19.20
2020,04,15,16,55,19.20
2020,04,15,16,56,19.20
2020,04,15,16,57,19.30
2020,04,15,16,58,19.30
2020,04,15,16,59,19.10
2020,04,15,17,00,19.10
2020,04,15,17,01,18.90
2020,04,15,17,02,18.90
2020,04,15,17,03,18.80
2020,04,15,17,04,18.80
2020,04,15,17,05,18.70
2020,04,15,17,06,18.70
2020,04,15,17,07,18.70
2020,04,15,17,08,18.80
2020,04,15,17,09,18.80
2020,04,15,17,10,18.90
2020,04,15,17,11,19.00
2020,04,15,17,12,19.10
2020,04,15,17,13,19.10
2020,04,15,17,14,19.10
2020,04,15,17,15,19.10
2020,04,15,17,16,19.10
2020,04,15,17,17,19.10
2020,04,15,17,18,19.20
2020,04,15,17,19,19.20
2020,04,15,17,20,19.30
2020,04,15,17,21,19.40
2020,04,15,17,22,19.40
2020,04,15,17,23,19.50
2020,04,15,17,24,19.50
2020,04,15,17,25,19.50
2020,04,15,17,26,19.60
2020,04,15,17,27,19.60
2020,04,15,17,28,19.70
2020,04,15,17,29,19.70
2020,04,15,17,30,19.80
2020,04,15,17,31,19.80
2020,04,15,17,32,19.80
2020,04,15,17,33,19.70
2020,04,15,17,34,19.60
2020,04,15,17,35,19.60
2020,04,15,17,36,19.50
2020,04,15,17,37,19.40
2020,04,15,17,38,19.30
2020,04,15,17,39,19.30
2020,04,15,17,40,19.20
2020,04,15,17,41,19.10